[Iaude] MPEC M117: 2024 MK1 [a=1.71,e=0.35,i=21.4,H=24.0]
    mpec at cfa.harvard.edu 
    mpec at cfa.harvard.edu
       
    Sun Jun 30 02:58:40 EDT 2024
    
    
  
M.P.E.C. 2024-M117                                Issued 2024 June 30, 06:56 UT
     The Minor Planet Electronic Circulars contain information on unusual
         minor planets, routine data on comets and natural satellites,
         and occasional editorial announcements.  They are published
    on behalf of Division F of the International Astronomical Union by the
          Minor Planet Center, Smithsonian Astrophysical Observatory,
                          Cambridge, MA 02138, U.S.A.
			  
             Prepared using the Tamkin Foundation Computer Network
                              MPC at CFA.HARVARD.EDU
            URL https://www.minorplanetcenter.net/    ISSN 1523-6714
                                    2024 MK1                                    
Observations:
     K24M01K* C2024 06 28.28824917 58 43.490+16 24 33.76         21.35wXEM117F52
     K24M01K  C2024 06 28.29875917 58 44.145+16 23 03.56         21.12wXEM117F52
     K24M01K  C2024 06 28.30930917 58 44.776+16 21 33.40         20.84wXEM117F52
     K24M01K  C2024 06 28.31979517 58 45.424+16 20 03.25         21.30wXEM117F52
     K24M01K KC2024 06 28.40590 17 58 47.18 +16 07 21.5                VEM117291
     K24M01K KC2024 06 28.40734 17 58 47.27 +16 07 09.0                VEM117291
     K24M01K  C2024 06 28.44877917 58 52.537+16 01 25.22         21.16GVEM117F51
     K24M01K  C2024 06 28.44942717 58 52.576+16 01 19.40         21.32GVEM117F51
     K24M01K KB2024 06 28.90866 17 59 33.04 +14 52 43.0          20.0 RZEM117106
     K24M01K KB2024 06 28.91448 17 59 33.42 +14 51 50.0          20.4 RZEM117106
     K24M01K KB2024 06 28.92042 17 59 33.81 +14 50 56.4          19.6 RZEM117106
     K24M01K KB2024 06 28.92613 17 59 34.15 +14 50 04.9          19.8 RZEM117106
     K24M01K KC2024 06 29.00498 17 59 39.33 +14 38 07.8                VEM117104
     K24M01K KC2024 06 29.02883 17 59 40.90 +14 34 28.5          19.9 GVEM117104
     K24M01K |C2024 06 29.19133017 59 56.310+14 11 01.10         20.9 GVEM117807
     K24M01K |C2024 06 29.19683017 59 56.600+14 10 10.90         21.0 GVEM117807
     K24M01K |C2024 06 29.20234017 59 56.930+14 09 19.60         20.9 GVEM117807
     K24M01K |C2024 06 30.12462018 01 21.440+11 41 39.40         21.8 GVEM117807
     K24M01K |C2024 06 30.13013018 01 21.790+11 40 45.20         21.8 GVEM117807
     K24M01K |C2024 06 30.13563018 01 22.170+11 39 50.60         21.5 GVEM117807
     K24M01K KC2024 06 30.15702718 01 24.64 +11 34 51.4          20.9 GVEM117H21
     K24M01K KC2024 06 30.15982418 01 24.82 +11 34 23.7          20.8 GVEM117H21
     K24M01K KC2024 06 30.16261918 01 25.02 +11 33 56.1          21.1 GVEM117H21
Observer details:
104 San Marcello Pistoiese.  Observers P. Bacci, M. Maestripieri.  Measurer P.
    Bacci.  0.60-m f/4 reflector + CCD.
106 Crni Vrh.  Observer H. Mikuz.  0.60-m f/3.3 reflector + CMO.
291 LPL/Spacewatch II.  Observer R. A. Mastaler.  1.8-m f/2.7 reflector + CCD.
807 Cerro Tololo Observatory, La Serena.  Observers T. Linder, R. Holmes.
    0.61-m f/6.8 Ritchey-Chretien + CCD.
F51 Pan-STARRS 1, Haleakala.  Observers J. Herman, T. Lowe, P. Minguez, A.
    Schultz, I. Smith.  Measurers K. Chambers, T. de Boer, J. Fairlamb, H.
    Gao, M. Huber, C.-C. Lin, E. Magnier, Y. Ramanjooloo, R. Wainscoat, R.
    Weryk.  1.8-m Ritchey-Chretien + CCD.
F52 Pan-STARRS 2, Haleakala.  Observers J. Herman, T. Lowe, P. Minguez, A.
    Schultz, I. Smith.  Measurers K. Chambers, T. de Boer, J. Fairlamb, H.
    Gao, M. Huber, C.-C. Lin, E. Magnier, Y. Ramanjooloo, R. Wainscoat, R.
    Weryk.  1.8-m Ritchey-Chretien + CCD.
H21 Astronomical Research Observatory, Westfield.  Observer R. Holmes.
    Measurers T. Linder, R. Holmes, L. Horn.  0.76-m f/3.0 astrograph + CCD.
Orbital elements:
2024 MK1                                                 Earth MOID = 0.0955 AU
Epoch 2024 Mar. 31.0 TT = JDT 2460400.5                 MPC                     
M 317.23608              (2000.0)            P               Q                  
n   0.44195069     Peri.  176.01204     +0.22374148     +0.90979184             
a   1.7069475      Node   106.64691     -0.90401376     +0.32777904             
e   0.3488058      Incl.   21.40087     -0.36427856     -0.25463642             
P   2.23           H   24.07          G   0.15           U   8                  
Residuals in seconds of arc
240628 F52  0.1-  0.3+    240628 106  0.0   0.7+    240629 807  0.6-  0.2+
240628 F52  0.0   0.1-    240628 106  0.1+  0.3+    240630 807  0.1-  0.5-
240628 F52  0.1-  0.1+    240628 106  0.2+  0.5+    240630 807  0.2-  0.0
240628 F52  0.3+  0.2-    240628 106  0.1-  0.8+    240630 807  0.1+  0.0
240628 291  0.3+  0.1-    240629 104  0.6-  0.1+    240630 H21  0.3+  0.0
240628 291  0.3+  0.0     240629 104  0.5-  0.4-    240630 H21  0.1+  0.1+
240628 F51  0.1+  0.2+    240629 807  0.1-  0.5-    240630 H21  0.2+  0.3+
240628 F51  0.2+  0.1+    240629 807  0.6-  0.3+
Ephemeris:
2024 MK1                 a,e,i = 1.71, 0.35, 21                  q = 1.1116
Date    TT    R. A. (2000) Decl.     Delta      r    Elong.  Phase     V
2024 05 31    17 36 09.8 +41 53 54   0.2870  1.1626   114.5    52.5    23.6
...
2024 06 15    17 45 26.1 +35 36 32   0.1959  1.1293   121.0    50.4    22.7
...
2024 06 23    17 52 20.4 +26 40 36   0.1501  1.1183   129.8    44.3    21.9
...
2024 06 29    17 59 40.1 +14 39 37   0.1208  1.1135   141.3    34.8    21.2
2024 06 30    18 01 08.6 +12 01 32   0.1167  1.1129   143.8    32.7    21.0
2024 07 01    18 02 42.4 +09 11 08   0.1129  1.1125   146.4    30.4    20.9
...
2024 07 07    18 14 22.1 -11 55 06   0.09845 1.1116   163.8    14.7    20.1
...
2024 07 15    18 38 45.4 -42 35 04   0.1074  1.1151   155.6    22.1    20.5
...
2024 07 30    20 06 51.6 -70 43 14   0.1821  1.1355   127.6    45.1    22.4
A. U. Tomatic                (C) Copyright 2024 MPC           M.P.E.C. 2024-M117
    
    
More information about the Iaude
mailing list